Date,H,E
2014-05-07 17:00,NaN,NaN
2014-05-07 18:26,-17.71166,-0.088350648
2014-05-07 19:55,-13.091984,-0.065342848
2014-05-07 20:36,-19.79472033,-0.098774677
2014-05-07 21:35,-20.680738,-0.103205128
2014-05-07 22:35,-18.21281367,-0.090889749
2014-05-07 23:36,-15.360414,-0.076646683
2014-05-08 0:35,-18.51491367,-0.092381312
2014-05-08 1:35,-21.64757333,-0.107994674
2014-05-08 2:36,-17.139917,-0.085536954
2014-05-08 3:35,-20.30864233,-0.101359765
2014-05-08 4:35,-16.620904,-0.082964302
2014-05-08 5:36,-10.9981147,-0.054854658
2014-05-08 6:35,-2.933832567,-0.014628208
2014-05-08 7:35,-0.012915283,-3.25E-05
2014-05-08 8:36,1.569714876,0.007868159
2014-05-08 9:35,5.2736664,0.026302048
2014-05-08 10:35,9.0135815,0.044983785
2014-05-08 11:36,6.035634467,0.03012699
2014-05-08 12:35,8.599977833,0.042959885
2014-05-08 13:35,3.212087333,0.016040648
2014-05-08 14:36,-0.447402117,-0.00223317
2014-05-08 15:35,-3.5426253,-0.017688885
2014-05-08 16:25,-4.02033205,-0.020089174
2014-05-08 17:26,-8.9476241,-0.044680401
2014-05-08 18:26,-8.706504667,0.521889172
2014-05-08 19:27,-9.576307033,-6.6567273
2014-05-08 20:26,-8.4046236,-5.619932833
2014-05-08 21:26,-13.67418933,-5.09517695
2014-05-08 22:27,-9.998106033,-3.9320218
2014-05-08 23:26,-6.3788479,-0.916043
2014-05-09 0:26,-6.7156419,-2.678225627
2014-05-09 1:27,-8.1737946,-1.721572323
2014-05-09 2:26,-5.0776699,-1.275253133
2014-05-09 3:26,-6.855792667,-2.363327473
2014-05-09 4:27,-7.2573155,-2.700347867
2014-05-09 5:26,-4.222456567,-1.275892143
2014-05-09 6:26,-3.713776333,-1.539527419
2014-05-09 7:27,-2.4235967,-2.257386767
2014-05-09 8:26,2.28733861,0.75146852
2014-05-09 9:26,3.1382116,2.762615267
2014-05-09 10:27,5.9798818,6.205972267
2014-05-09 11:28,9.00275025,6.0058192
2014-05-09 12:29,7.5957711,7.365283067
2014-05-09 13:29,10.4642004,5.7132122
2014-05-09 14:29,1.617660267,6.9751838
2014-05-09 15:29,1.164819288,3.5703818
2014-05-09 16:29,2.524186167,1.970161643
2014-05-09 17:29,-1.88506202,-1.16309053
2014-05-09 18:29,-1.73736112,-0.698280831
2014-05-09 19:29,-3.5311541,-1.48354967
2014-05-09 20:29,-4.2557244,-1.9742827
2014-05-09 21:30,-2.738667067,-1.205203753
2014-05-09 22:30,-2.8989618,-0.906988593
2014-05-09 23:44,-6.186053,1.7048371
2014-05-10 0:25,1.357926733,-1.83424466
2014-05-10 1:24,-0.84502087,-1.595855083
2014-05-10 2:24,-0.112553173,0.24718707
2014-05-10 3:25,-0.205503705,-0.253984417
2014-05-10 4:24,-0.43453055,0.38614981
2014-05-10 5:24,0.308221306,-0.624670717
2014-05-10 6:25,0.824378963,-0.156067844
2014-05-10 7:24,0.574291907,0.171534143
2014-05-10 8:24,2.309311567,1.704836543
2014-05-10 9:25,6.1871393,3.799366089
2014-05-10 10:24,8.056333067,6.437754833
2014-05-10 11:24,7.745690567,7.091554833
2014-05-10 12:25,9.089118933,8.801418233
2014-05-10 13:24,7.759999667,7.099589333
2014-05-10 14:24,7.004544633,6.9678923
2014-05-10 15:25,5.658657367,4.992325633
2014-05-10 16:24,3.635067533,2.330919533
2014-05-10 17:24,1.528339623,0.173175993
2014-05-10 18:25,-0.661500413,-0.80986176
2014-05-10 19:24,-0.982719553,-0.43019632
2014-05-10 20:24,-1.178449433,-0.115314089
2014-05-10 21:25,-2.077214467,-0.890985247
2014-05-10 22:24,-2.761171767,-0.463771473
2014-05-10 23:24,-3.1276944,-0.273223047
2014-05-11 0:25,-2.392281033,0.747289903
2014-05-11 1:24,-2.189320867,-0.694534917
2014-05-11 2:24,-1.803589913,-1.247419687
2014-05-11 3:25,-1.33587005,-0.54618673
2014-05-11 4:24,-1.487245833,0.389187487
2014-05-11 5:24,-0.99484046,-0.416561307
2014-05-11 6:25,0.766895683,-0.839811923
2014-05-11 7:24,0.87359101,1.261322243
2014-05-11 8:24,2.4254006,3.273469067
2014-05-11 9:25,3.632680167,5.325256833
2014-05-11 10:24,6.7382102,13.50692767
2014-05-11 11:24,6.627113667,20.222177
2014-05-11 12:25,5.115780867,19.10876867
2014-05-11 13:24,5.3691808,19.21698333
2014-05-11 14:24,5.200935067,16.23257833
2014-05-11 15:25,4.259551033,13.91099433
2014-05-11 16:24,1.261607633,10.2462573
2014-05-11 17:24,1.464240933,7.218563567
2014-05-11 18:25,1.027315259,5.2381667
2014-05-11 19:24,-5.0458789,3.33222247
2014-05-11 20:24,-7.8507413,0.3922591
2014-05-11 21:25,-18.067014,-5.761573826
2014-05-11 22:24,-15.71764233,-5.000432033
2014-05-11 23:24,-17.65505167,-5.479316433
2014-05-12 0:25,-17.17200533,-5.1507837
2014-05-12 1:24,-12.8956484,-1.7747304
2014-05-12 2:24,-17.31267067,-4.397175333
2014-05-12 3:25,-14.551705,-3.8217808
2014-05-12 4:24,-10.49585567,-2.909040233
2014-05-12 5:24,-7.534524567,-2.044693533
2014-05-12 6:25,-4.081844133,-0.4721111
2014-05-12 7:24,1.501644401,1.52028107
2014-05-12 8:24,7.946233667,4.5581719
2014-05-12 9:25,11.58283267,7.6811692
2014-05-12 10:24,14.36764033,10.3742301
2014-05-12 11:24,16.64193967,13.12379533
2014-05-12 12:25,17.21364867,14.92170967
2014-05-12 13:24,15.842992,17.963823
2014-05-12 14:24,11.88350697,19.132637
2014-05-12 15:25,5.2298256,12.91332033
2014-05-12 16:24,-0.788156367,4.3749476
2014-05-12 17:24,-8.2829087,0.194008567
2014-05-12 18:25,-11.38124233,-1.38905071
2014-05-12 19:24,-21.28563467,-4.619808467
2014-05-12 20:24,-17.354543,-4.9320428
2014-05-12 21:25,-18.151708,-5.286208567
2014-05-12 22:15,-14.6517575,-3.31758255
2014-05-12 23:36,-14.82960393,-3.371952867
2014-05-13 0:35,-7.071579767,-0.9601058
2014-05-13 1:54,2.2217672,-3.3060875
2014-05-13 2:34,-3.950437633,-0.180417566
2014-05-13 3:35,-9.5396888,-2.575744967
2014-05-13 4:34,-6.175859167,-1.880323067
2014-05-13 5:34,-2.908614153,-0.850629616
2014-05-13 6:20,1.17102,0.18286785
2014-05-13 7:32,4.3778131,1.046483125
2014-05-13 8:23,5.2556741,2.3133021
2014-05-13 9:23,8.519285467,4.492848
2014-05-13 10:24,9.450515333,7.0996798
2014-05-13 11:24,15.94157733,11.34922787
2014-05-13 12:25,19.14951333,21.03897367
2014-05-13 13:24,20.51775967,22.102567
2014-05-13 14:24,6.594359233,14.67211167
2014-05-13 15:25,0.656298023,9.847919367
2014-05-13 16:24,-0.494578207,2.762026167
2014-05-13 17:24,-0.655586477,0.112120557
2014-05-13 18:25,-3.0610815,-1.464239083
2014-05-13 19:24,-5.870558467,-3.7138225
2014-05-13 20:24,-6.942328433,-4.0024658
2014-05-13 21:25,-4.1517317,-2.194542397
2014-05-13 22:24,-11.44022167,-1.964983967
2014-05-13 23:24,-10.65371037,-2.706797833
2014-05-14 0:46,-6.9693024,-2.352736825
2014-05-14 1:37,-8.5236306,-3.519638833
2014-05-14 2:36,-10.30178633,-5.479107967
2014-05-14 3:36,-8.9764891,-4.767909533
2014-05-14 4:37,-5.881738933,-4.368968067
2014-05-14 5:36,-1.921973807,-1.591486433
2014-05-14 6:36,1.8679509,-0.80378471
2014-05-14 7:37,3.2556743,1.17518869
2014-05-14 8:36,9.839543,4.826614467
2014-05-14 9:36,10.5670638,7.631040633
2014-05-14 10:37,8.503852433,8.743979167
2014-05-14 11:36,9.5282608,11.73156267
2014-05-14 12:36,6.530417867,11.24786547
2014-05-14 13:37,1.157113503,11.392071
2014-05-14 14:36,-5.782676833,4.1757352
2014-05-14 15:36,-7.961131633,6.845134233
2014-05-14 16:37,-1.211705317,3.977455267
2014-05-14 17:36,-5.414223567,2.463368367
2014-05-14 18:36,-8.855617167,1.221017163
2014-05-14 19:37,-8.693958433,0.913776087
2014-05-14 20:36,-7.670084267,2.275026211
2014-05-14 21:36,-10.76370523,-0.47351529
2014-05-14 22:37,-15.392884,0.02308035
2014-05-14 23:36,-24.237524,1.614417797
2014-05-15 0:36,-29.79827867,1.033699903
2014-05-15 1:37,-34.39526933,-5.2773609
2014-05-15 2:36,-27.842193,1.510134423
2014-05-15 3:36,-33.69414967,1.661418157
2014-05-15 4:37,-25.59184467,0.82922833
2014-05-15 5:36,-18.22083733,5.818922733
2014-05-15 6:36,-7.020412167,5.356419133
2014-05-15 7:37,-2.123730967,7.7787501
2014-05-15 8:36,-2.219284537,14.032126
2014-05-15 9:36,-1.742616833,10.82550733
2014-05-15 10:37,0.565906735,13.17210667
2014-05-15 11:36,2.081454133,10.272255
2014-05-15 12:36,1.523657567,8.435368467
2014-05-15 13:37,4.794291133,4.7195748
2014-05-15 14:36,8.015565567,-13.3294322
2014-05-15 15:36,9.9555066,NaN
2014-05-15 16:37,-5.405568267,-3.169149333
2014-05-15 17:36,-9.4632137,-0.891623333
2014-05-15 18:36,-14.86622067,8.5934111
2014-05-15 19:37,-13.83782967,2.6157868
2014-05-15 20:36,-14.68038633,4.2060805
2014-05-15 21:36,-14.056648,4.424425767
2014-05-15 22:37,-12.547275,3.3411044
2014-05-15 23:36,-9.531930967,0.837437843
2014-05-16 0:36,-8.2052244,-1.3285485
2014-05-16 1:37,-10.96942633,-0.234593447
2014-05-16 2:36,-9.9656013,3.4113071
2014-05-16 3:36,-3.796437467,1.19508535
2014-05-16 4:37,-2.749950333,2.422360533
2014-05-16 5:36,-3.952479567,0.548268621
2014-05-16 6:36,0.0085124,5.1529822
2014-05-16 7:37,1.771257727,16.03241033
2014-05-16 8:36,1.927672667,26.26882367
2014-05-16 9:36,4.963208933,32.07830367
2014-05-16 10:37,8.704851233,38.53103133
2014-05-16 11:36,10.5742536,37.10415167
2014-05-16 12:36,13.73467167,32.93880667
2014-05-16 13:37,11.4257298,37.77158533
2014-05-16 14:36,5.2083211,22.20680667
2014-05-16 15:36,0.313874633,14.308656
2014-05-16 16:37,-5.057961333,6.793112033
2014-05-16 17:36,-5.5527784,11.50369653
2014-05-16 18:36,-4.1340978,4.323936667
2014-05-16 19:37,-7.706231533,7.682842967
2014-05-16 20:36,-10.5398818,9.541682
2014-05-16 21:36,-9.146647533,5.475684867
2014-05-16 22:37,-6.301290133,3.952951133
2014-05-16 23:36,-8.5792282,1.736422033
2014-05-17 0:36,-13.492229,-4.2021099
2014-05-17 1:37,-0.951003033,1.356900357
2014-05-17 2:36,-4.512970767,1.855638267
2014-05-17 3:36,-3.499980133,1.7663565
2014-05-17 4:37,-3.021280067,2.932742883
2014-05-17 5:39,1.95890394,2.949269575
2014-05-17 6:28,2.8099103,5.6291338
2014-05-17 7:28,3.786680833,7.269786933
2014-05-17 8:29,4.1991759,9.360679067
2014-05-17 9:29,3.70685446,14.363754
2014-05-17 10:28,5.9786328,14.669911
2014-05-17 11:29,9.303641367,17.542121
2014-05-17 12:28,9.519876733,17.23844333
2014-05-17 13:28,11.15324933,20.960659
2014-05-17 14:29,12.02527833,26.55477233
2014-05-17 15:29,4.71697342,19.6437535
2014-05-17 16:28,-0.075010514,6.746308867
2014-05-17 17:29,-1.787686427,1.6586225
2014-05-17 18:28,-2.909460763,0.654324997
2014-05-17 19:28,-2.438278967,0.687660253
2014-05-17 20:29,-1.570244853,2.1446648
2014-05-17 21:29,-1.664709577,1.51355358
2014-05-17 22:28,-2.3088256,0.620636473
2014-05-17 23:29,-1.496313633,1.470423903
2014-05-18 0:28,-1.630223033,0.43374757
2014-05-18 1:28,-0.256045604,0.155924
2014-05-18 2:29,0.206723885,0.138669732
2014-05-18 3:29,0.43537949,0.531430693
2014-05-18 4:28,1.161568793,0.329604904
2014-05-18 5:29,2.311780967,1.743784033
2014-05-18 6:28,1.35747793,1.70928131
2014-05-18 7:28,2.162311847,3.492343133
2014-05-18 8:29,3.993335033,5.659174033
2014-05-18 9:29,5.563953267,9.313720933
2014-05-18 10:28,3.425822367,7.610833267
2014-05-18 11:29,2.325635133,6.529476967
2014-05-18 12:28,1.1722281,5.791052467
2014-05-18 13:28,-0.382399213,3.459963333
2014-05-18 14:29,0.379532567,3.007979733
2014-05-18 15:29,0.16738286,2.6893812
2014-05-18 16:28,-0.44896479,2.124466723
2014-05-18 17:29,0.024311444,0.957167397
2014-05-18 18:28,0.018427203,1.188203147
2014-05-18 19:28,-0.28567862,0.742424033
2014-05-18 20:29,0.034958817,0.057938633
2014-05-18 21:29,-0.62347292,3.59554323
2014-05-18 22:28,-0.5573103,0.55906595
2014-05-18 23:18,-0.52368379,0.01736716
2014-05-19 0:33,-0.3239476,-0.336530827
2014-05-19 1:24,-0.212784716,-0.279094785
2014-05-19 2:36,7.774433533,-0.350013783
2014-05-19 3:36,6.864516867,5.2119841
2014-05-19 4:17,8.2234271,5.803298
2014-05-19 5:36,7.5032448,5.0977566
2014-05-19 6:00,NaN,NaN
2014-05-19 7:44,9.6313405,23.882424
2014-05-19 8:29,12.291256,27.30393933
2014-05-19 9:29,12.500395,33.142647
2014-05-19 10:28,13.64167333,35.487513
2014-05-19 11:29,11.72927133,34.71139667
2014-05-19 12:28,7.960262033,31.35098833
2014-05-19 13:28,7.466087667,37.24693067
2014-05-19 14:29,3.848525533,31.647566
2014-05-19 15:29,-0.121520253,29.17404567
2014-05-19 16:28,-0.149727937,28.58947067
2014-05-19 17:29,-2.655335387,22.27625667
2014-05-19 18:28,-5.8236368,11.339943
2014-05-19 19:28,-4.868507133,6.081026833
2014-05-19 20:29,-11.58769047,8.315535167
2014-05-19 21:29,-15.4773505,3.694196927
2014-05-19 22:28,-9.267678767,1.514967703
2014-05-19 23:29,-11.52209413,4.229852933
2014-05-20 0:28,-7.550423167,6.099729033
2014-05-20 1:28,-6.692237467,6.352488333
2014-05-20 2:29,-4.0440385,1.9116678
2014-05-20 3:29,-2.724624483,2.9609063
2014-05-20 4:28,1.971330397,8.2843023
2014-05-20 5:29,-3.18699642,1.61453186
2014-05-20 6:28,0.87796539,3.19606709
2014-05-20 7:28,6.807339567,7.9716738
2014-05-20 8:29,21.67433033,16.09180767
2014-05-20 9:29,25.167901,19.41574867
2014-05-20 10:28,26.354162,23.15657367
2014-05-20 11:29,27.12019033,29.89925667
2014-05-20 12:28,25.037155,31.985304
2014-05-20 13:28,20.36620333,27.59618267
2014-05-20 14:29,18.67696467,25.73535533
2014-05-20 15:29,14.775885,22.56151767
2014-05-20 16:28,10.6448228,18.40941867
2014-05-20 17:29,4.4583363,12.81212033
2014-05-20 18:28,1.643521033,9.897455167
2014-05-20 19:25,-0.155169475,7.8691944
2014-05-20 20:29,-0.935122367,2.6657462
2014-05-20 21:48,-1.15325207,1.19112695
2014-05-20 23:33,-1.728441333,1.297790367
2014-05-21 0:15,-2.1282389,1.2847882
2014-05-21 1:12,-1.0230655,1.0184959
2014-05-21 2:30,-0.36806876,1.1856201
2014-05-21 3:03,-0.57094977,0.3849087
2014-05-21 4:00,NaN,NaN
2014-05-21 5:00,NaN,NaN
2014-05-21 6:00,NaN,NaN
2014-05-21 7:00,NaN,NaN
2014-05-21 8:00,NaN,NaN
2014-05-21 9:00,NaN,NaN
2014-05-21 10:35,14.180735,10.513949
2014-05-21 11:29,17.1669845,12.433173
2014-05-21 12:49,17.775432,11.58102
2014-05-21 13:29,15.94640867,11.71593867
2014-05-21 14:30,13.963499,10.32986727
2014-05-21 15:45,15.75066,12.473333
2014-05-21 16:24,11.1059805,7.9822944
2014-05-21 17:29,7.391919233,5.205779733
2014-05-21 18:33,5.216829967,3.7433286
2014-05-21 19:34,3.321107267,2.292133133
2014-05-21 20:33,2.279598867,1.544307367
2014-05-21 21:33,2.578520733,0.807785733
2014-05-21 22:34,2.515706433,0.153301967
2014-05-21 23:37,2.7774527,0.155191223
2014-05-22 0:38,2.524083633,-3.4560459
2014-05-22 1:38,2.9323982,-0.4706937
2014-05-22 2:39,2.543316333,-0.123535371
2014-05-22 3:38,5.377925133,-2.623889767
2014-05-22 4:38,5.485544467,-1.384893333
2014-05-22 5:39,6.910164367,0.43685298
2014-05-22 6:38,3.8179066,29.300316
2014-05-22 7:38,9.269107233,5.606914767
2014-05-22 8:39,8.1542634,8.531961033
2014-05-22 9:38,10.75990133,14.36299967
2014-05-22 10:38,15.91859767,20.274099
2014-05-22 11:39,18.59052867,20.891987
2014-05-22 12:38,19.26990767,20.48327467
2014-05-22 13:38,19.49085133,22.02235767
2014-05-22 14:39,17.89330333,20.064374
2014-05-22 15:38,15.707576,17.18510933
2014-05-22 16:38,13.46242467,15.606579
2014-05-22 17:39,7.508580867,9.5436103
2014-05-22 18:38,1.57530621,3.653101713
2014-05-22 19:38,-1.092538377,0.724727993
2014-05-22 20:39,1.126649367,1.285703887
2014-05-22 21:38,0.586670733,-0.421581077
2014-05-22 22:38,2.165201967,-0.401728833
2014-05-22 23:39,5.632769267,-3.36148964
2014-05-23 0:38,5.181458867,0.004530167
2014-05-23 1:38,3.103687233,-0.678699967
2014-05-23 2:39,4.456791533,-1.231237067
2014-05-23 3:38,6.532729533,0.668172167
2014-05-23 4:38,5.368392367,10.79113677
2014-05-23 5:39,7.770189433,3.634012633
2014-05-23 6:38,9.361270467,6.223767867
2014-05-23 7:38,4.851127367,4.661165567
2014-05-23 8:39,4.789004767,5.489399833
2014-05-23 9:38,5.8929802,7.823403567
2014-05-23 10:38,8.144504033,9.970353833
2014-05-23 11:39,6.991961267,9.870037333
2014-05-23 12:38,9.337492333,12.89281467
2014-05-23 13:38,14.692456,17.37429667
2014-05-23 14:39,8.4675128,15.431206
2014-05-23 15:38,4.070674067,12.34956947
2014-05-23 16:38,4.287204367,8.469097433
2014-05-23 17:39,2.004999233,6.1513902
2014-05-23 18:38,0.534528637,3.735240133
2014-05-23 19:38,-0.767103803,1.40628573
2014-05-23 20:39,-1.661016533,0.67693113
2014-05-23 21:38,-0.843011863,0.618303353
2014-05-23 22:38,-1.055654763,-0.000415824
2014-05-23 23:39,-1.15065904,-0.065653125
2014-05-24 0:38,-1.258249267,-0.582406377
2014-05-24 1:38,-0.789508837,-0.304205963
2014-05-24 2:39,-0.283357393,0.01227257
2014-05-24 3:38,0.0221144,0.110257017
2014-05-24 4:38,0.683054267,0.808927103
2014-05-24 5:39,0.56229659,1.157657117
2014-05-24 6:38,1.407900217,3.177836333
2014-05-24 7:38,1.25437443,4.2017186
2014-05-24 8:39,3.624164267,5.500655767
2014-05-24 9:38,3.8927169,5.694655167
2014-05-24 10:38,1.907694,4.561356167
2014-05-24 11:39,2.1225316,2.8312635
2014-05-24 12:38,1.987895567,-1.786805033
2014-05-24 13:38,2.7588431,-6.114411433
2014-05-24 14:39,-3.017238,NaN
2014-05-24 15:38,-29.27950133,NaN
2014-05-24 16:18,3.5278921,-34.52591
2014-05-24 17:00,NaN,NaN
2014-05-24 18:00,NaN,NaN
2014-05-24 19:38,4.5821833,-23.546865
2014-05-24 20:36,NaN,NaN
2014-05-24 21:35,10.64737,-1.8569693
2014-05-24 22:00,NaN,NaN
2014-05-24 23:00,NaN,NaN
2014-05-25 0:00,NaN,NaN
2014-05-25 1:00,NaN,NaN
2014-05-25 2:00,NaN,NaN
2014-05-25 3:00,NaN,NaN
2014-05-25 4:00,NaN,NaN
2014-05-25 5:00,NaN,NaN
2014-05-25 6:00,NaN,NaN
2014-05-25 7:00,NaN,NaN
2014-05-25 8:00,NaN,NaN
2014-05-25 9:19,5.8269478,20.2430195
2014-05-25 10:28,10.05303197,23.852595
2014-05-25 11:29,10.4728675,28.71838967
2014-05-25 12:28,5.011604867,36.090191
2014-05-25 13:28,1.331973517,37.89918233
2014-05-25 14:29,2.6332502,26.76010767
2014-05-25 15:29,-2.023844233,16.25836403
2014-05-25 16:28,-3.357108,8.8992557
2014-05-25 17:29,-4.099100033,0.039540453
2014-05-25 18:28,-6.704673667,-1.897296667
2014-05-25 19:28,-4.725874887,0.646006533
2014-05-25 20:29,-5.510353833,-0.880490833
2014-05-25 21:29,-11.52364243,-5.1533765
2014-05-25 22:28,-7.039995633,-0.890797314
2014-05-25 23:29,-5.610545667,-0.0314865
2014-05-26 0:28,-12.64202053,-7.505563467
2014-05-26 1:28,-15.84291333,-8.130635933
2014-05-26 2:29,-10.6966207,-5.862331833
2014-05-26 3:28,-6.4941059,-3.5983032
2014-05-26 4:27,-5.683906467,-1.9997727
2014-05-26 5:26,-2.819120733,1.718296033
2014-05-26 6:26,-1.8793449,-1.431422057
2014-05-26 7:27,0.523211107,0.46792954
2014-05-26 8:26,6.925784333,5.201639873
2014-05-26 9:26,0.628148033,8.099782233
2014-05-26 10:27,-4.2484837,7.245225433
2014-05-26 11:26,-8.4392414,4.9476821
2014-05-26 12:26,-14.08159827,NaN
2014-05-26 13:27,-28.11397067,NaN
2014-05-26 14:26,-15.67281033,-2.8770647
2014-05-26 15:26,-15.401111,-3.305426167
2014-05-26 16:27,-11.093464,-1.573548943
2014-05-26 17:26,-10.4282942,9.310022867
2014-05-26 18:26,1.607937733,50.80416633
2014-05-26 19:31,-3.904200567,16.380893
2014-05-26 20:31,-8.375481633,21.03324933
2014-05-26 21:31,-16.36690667,12.5313241
2014-05-26 22:31,-24.82355933,0.18545191
2014-05-26 23:31,-18.31627233,-0.698817767
2014-05-27 0:31,-2.4094045,9.0635829
2014-05-27 1:31,-6.774191933,4.492197667
2014-05-27 2:31,-9.442357733,3.5928944
2014-05-27 3:31,-10.35365763,-1.922862127
2014-05-27 4:31,-7.641163633,-1.0298004
2014-05-27 5:31,-2.058623358,2.401537867
2014-05-27 6:31,5.307779567,8.7025958
2014-05-27 7:31,10.22610573,15.331765
2014-05-27 8:31,15.17322633,23.00941967
2014-05-27 9:31,20.707332,29.71415633
2014-05-27 10:31,23.15009167,36.34929667
2014-05-27 11:31,19.626667,34.40997267
2014-05-27 12:31,14.78508567,36.847098
2014-05-27 13:31,12.22836633,29.78209033
2014-05-27 14:31,9.215880533,24.29063867
2014-05-27 15:46,7.2519514,14.56338
2014-05-27 16:27,6.259772433,15.546023
2014-05-27 17:26,5.175581133,17.85079433
2014-05-27 18:26,1.993011633,12.27159033
2014-05-27 19:27,-0.264111634,9.8480344
2014-05-27 20:26,-1.989888567,3.417747
2014-05-27 21:26,-6.824481233,-3.73902032
2014-05-27 22:27,-8.272617533,-6.196830367
2014-05-27 23:26,-8.476420733,-6.020057833
2014-05-28 0:26,-8.1249013,-4.450943167
2014-05-28 1:27,-7.3879247,-5.191973367
2014-05-28 2:26,-6.316197167,-1.855637003
2014-05-28 3:26,-9.500273667,-4.1419236
2014-05-28 4:27,-7.9676185,-5.345372733
2014-05-28 5:26,-6.0482466,-2.867031633
2014-05-28 6:26,-2.670953233,0.8994795
2014-05-28 7:27,-1.51240255,1.786443507
2014-05-28 8:26,-2.561062967,5.231539567
2014-05-28 9:26,-1.152316923,6.116065967
2014-05-28 10:27,-0.991490003,2.539631267
2014-05-28 11:26,-1.363234417,-0.53993207
2014-05-28 12:26,14.26636797,-3.418310233
2014-05-28 13:27,5.013112147,0.60868117
2014-05-28 14:26,3.408808733,0.214078777
2014-05-28 15:26,-0.60518034,-0.378209242
2014-05-28 16:27,-0.291241448,-0.20998808
2014-05-28 17:26,-1.76638911,-0.915436033
2014-05-28 18:26,-9.4010018,-5.301472467
2014-05-28 19:27,-9.802049667,-4.890398
2014-05-28 20:26,-10.8568961,-5.2473406
2014-05-28 21:26,-6.055710367,-3.730954033
2014-05-28 22:27,-7.512571133,-4.114611
2014-05-28 23:26,-9.382291967,-4.094628133
2014-05-29 0:26,-13.06353,-4.755976
2014-05-29 1:27,-7.179763867,-3.4270753
2014-05-29 2:26,-19.28410267,-3.0917863
2014-05-29 3:26,-19.79428267,-3.287899267
2014-05-29 4:29,-13.511524,-7.757993733
2014-05-29 5:33,-2.641588123,-2.0743029
2014-05-29 6:33,-2.967455867,-2.047282933
2014-05-29 7:34,-2.2176775,-2.7203878
2014-05-29 8:33,-3.636720667,-4.196111467
2014-05-29 9:33,-8.655897967,-6.742082367
2014-05-29 10:34,-11.15925133,-8.469957
2014-05-29 11:23,-16.264379,-11.6018305
2014-05-29 12:09,-6.3977352,-3.4299136
2014-05-29 13:24,2.972332743,-0.069453187
2014-05-29 14:23,2.260100737,-0.904137903
2014-05-29 15:23,-3.525902067,-0.729424487
2014-05-29 16:24,-8.607636333,-3.091114967
2014-05-29 17:23,-9.8619285,-4.642439533
2014-05-29 18:23,-6.088747333,-2.866790467
2014-05-29 19:24,-10.39653683,32.75577327
2014-05-29 20:23,-6.128319833,-2.660224047
2014-05-29 21:23,-9.0569081,9.336357733
2014-05-29 22:24,-5.558662967,4.336270367
2014-05-29 23:23,-2.40148359,12.08231877
2014-05-30 0:23,2.674552283,23.31411967
2014-05-30 1:24,9.870255833,25.53532467
2014-05-30 2:23,14.94653567,24.45658567
2014-05-30 3:23,20.41401933,23.907803
2014-05-30 4:24,24.61044633,23.081632
2014-05-30 5:23,24.16443067,26.88800367
2014-05-30 6:23,30.07910267,27.49505167
2014-05-30 7:24,40.290574,26.88554767
2014-05-30 8:23,37.51655467,31.37138067
2014-05-30 9:23,43.94133067,37.17773367
2014-05-30 10:24,40.95432233,35.246517
2014-05-30 11:23,41.410709,37.63049567
2014-05-30 12:23,46.22913367,43.81322533
2014-05-30 13:24,41.02893067,38.87048033
2014-05-30 14:23,38.13956567,40.00159467
2014-05-30 15:23,31.86277167,35.09554933
2014-05-30 16:24,30.10588833,33.89080067
2014-05-30 17:23,26.80776933,27.46572067
2014-05-30 18:23,22.62177533,21.68002533
2014-05-30 19:24,15.64689967,15.753856
2014-05-30 20:23,11.541207,13.303554
2014-05-30 21:13,6.06398175,12.719105
2014-05-30 22:00,NaN,NaN
2014-05-30 23:00,NaN,NaN
2014-05-31 0:00,NaN,NaN
2014-05-31 1:00,NaN,NaN
2014-05-31 2:00,NaN,NaN
2014-05-31 3:00,NaN,NaN
2014-05-31 4:00,NaN,NaN
2014-05-31 5:00,NaN,NaN
2014-05-31 6:00,NaN,NaN
2014-05-31 7:00,NaN,NaN
2014-05-31 8:00,NaN,NaN
2014-05-31 9:00,NaN,NaN
2014-05-31 10:00,NaN,NaN
2014-05-31 11:00,NaN,NaN
2014-05-31 12:00,NaN,NaN
2014-05-31 13:00,NaN,NaN
2014-05-31 14:00,NaN,NaN
2014-05-31 15:00,NaN,NaN
2014-05-31 16:00,NaN,NaN
2014-05-30 21:13,6.06398175,12.719105
2014-05-31 17:33,11.6274355,41.378651
2014-05-31 18:23,4.6272876,32.157306
2014-05-31 19:24,3.2580215,24.145984
2014-05-31 20:23,0.557852963,21.54746633
2014-05-31 21:23,-2.474151733,15.69954367
2014-05-31 22:24,-2.836859433,9.358983867
2014-05-31 23:23,-2.782577133,9.754100267
2014-06-01 0:23,-2.4910526,10.07648633
2014-06-01 1:24,-2.586827033,5.500611767
2014-06-01 2:23,-1.646075997,7.160295167
2014-06-01 3:23,-0.56026948,9.240136967
2014-06-01 4:24,1.487434483,10.92000773
2014-06-01 5:23,4.171756367,13.62443067
2014-06-01 6:23,6.636307333,14.61374567
2014-06-01 7:24,9.632957267,16.76379033
2014-06-01 8:23,14.452465,21.59026833
2014-06-01 9:23,16.743685,23.581119
2014-06-01 10:24,20.697044,30.13778267
2014-06-01 11:23,20.77687033,32.05911167
2014-06-01 12:23,24.578804,41.91887767
2014-06-01 13:24,22.216549,39.90031
2014-06-01 14:23,22.07928733,40.770004
2014-06-01 15:23,23.35016567,43.11771333